Powrót do katalogu

STARLINK-34192

AktywnyŁącznośćVLEO
NORAD 64014·PAYLOAD·🇺🇸 United States

Wystrzelony May 14, 2025 z Cape Canaveral Space Force Station

Loading…

Następne Przeloty (najbliższe 24 godziny)

TLE

ŚwieżeSource: CelesTrak SupGP

Epoka: Sep 15, 2026, 02:59 UTC

1 64014C 25101W   26258.12479167  .00020134  00000+0  72949-3 0  2585
2 64014  43.0021   8.5031 0001338 254.8247  66.3405 15.27557662    12

Śledź STARLINK-34192 w czasie rzeczywistym z AllMySat

Download on the App Store